KB3ICM Weather Reports


time (UTC)temp
C
wind
direction
speed
KPH
gust
KPH
rain 1hr
cm
rain 24hr
cm
rain mn
cm
humidity
%
barometer
mb
20260507070321 8 309 0.0 0.0 0.00 1.22 0.00 92 1010.7
20260507065340 9 309 1.6 8.0 0.00 1.22 0.00 94 1011.1
20260507064324 9 317 0.0 0.0 0.00 1.22 0.00 94 1010.8
20260507063322 9 321 0.0 0.0 0.00 1.22 0.00 94 1010.9
20260507062326 9 321 0.0 0.0 0.00 1.22 0.00 94 1010.8
20260507061325 9 321 0.0 0.0 0.00 1.22 0.00 95 1011.0
20260507060323 9 320 0.0 0.0 0.00 1.22 0.00 95 1012.0
20260507055401 9 320 0.0 0.0 0.00 1.22 0.00 95 1010.3
20260507054337 9 320 0.0 6.4 0.00 1.22 0.00 96 1010.5
20260507053346 9 328 0.0 0.0 0.00 1.22 0.00 96 1010.8
20260507052323 9 30 0.0 0.0 0.00 1.22 0.00 96 1010.2
20260507051322 9 30 0.0 0.0 0.00 1.22 0.00 97 1010.6
20260507050327 9 30 0.0 0.0 0.00 1.22 0.00 97 1010.2
20260507045345 9 31 0.0 0.0 0.00 1.22 0.00 97 1010.1
20260507044323 9 31 0.0 0.0 0.00 1.22 0.00 97 1010.4
20260507043321 9 31 0.0 0.0 0.00 1.22 0.00 96 1010.1
20260507042322 10 31 0.0 0.0 0.00 1.22 0.00 96 1010.2
20260507041326 10 31 0.0 0.0 0.00 1.22 0.00 96 1010.1
20260507040325 10 31 0.0 0.0 0.00 1.22 0.00 96 946.9
20260507035322 10 31 0.0 0.0 0.00 1.22 1.22 96 1010.2
20260507034340 9 31 0.0 0.0 0.00 1.22 1.22 96 1010.8
20260507033339 9 31 0.0 0.0 0.00 1.22 1.22 95 1010.9
20260507032337 10 31 0.0 0.0 0.00 1.22 1.22 95 1010.3
20260507031324 10 31 0.0 0.0 0.00 1.22 1.22 95 1010.1
20260507030342 10 31 0.0 0.0 0.00 1.22 1.22 94 1014.0
20260507025326 10 30 0.0 0.0 0.00 1.22 1.22 94 1009.9
20260507024325 10 30 0.0 0.0 0.00 1.22 1.22 94 1010.3
20260507023324 10 30 0.0 0.0 0.00 1.22 1.22 94 1010.5
20260507022322 10 31 0.0 0.0 0.00 1.22 1.22 94 1011.4
20260507021359 10 30 0.0 0.0 0.00 1.22 1.22 94 1010.8
20260507020322 10 31 0.0 0.0 0.00 1.22 1.22 94 1010.8
20260507015326 10 31 0.0 0.0 0.00 1.22 1.22 94 1010.7
20260507014323 10 31 0.0 0.0 0.00 1.22 1.22 93 1010.8
20260507013327 10 31 0.0 0.0 0.00 1.22 1.22 92 1010.7
20260507012325 10 31 0.0 0.0 0.00 1.22 1.22 91 1012.2
20260507011322 10 30 0.0 0.0 0.00 1.22 1.22 93 1011.6
20260507010321 10 30 0.0 0.0 0.00 1.22 1.22 91 1010.5
20260507005324 10 31 0.0 0.0 0.00 1.22 1.22 91 949.7
20260507004344 11 31 0.0 0.0 0.00 1.22 1.22 92 1010.2
20260507003340 11 31 0.0 0.0 0.00 1.22 1.22 92 1010.1
20260507002339 11 31 0.0 0.0 0.00 1.22 1.22 92 1010.0
20260507001337 11 31 0.0 0.0 0.00 1.22 1.22 92 1009.7
20260507000336 11 31 0.0 0.0 0.00 1.22 1.22 92 1010.0
20260506235328 11 26 0.0 0.0 0.00 1.22 1.22 92 1009.2
20260506234332 11 26 0.0 0.0 0.00 1.22 1.22 91
20260506233330 11 26 0.0 8.0 0.00 1.22 1.22 91 1008.8
20260506232350 12 46 0.0 4.8 0.00 1.22 1.22 92 1008.6
20260506231346 11 47 1.6 9.7 0.00 1.22 1.22 91 1008.4
20260506230325 12 49 4.8 6.4 0.00 1.22 1.22 91 1008.5
20260506225324 12 347 1.6 9.7 0.00 1.22 1.22 92 1008.2
20260506224343 12 323 0.0 0.0 0.08 1.22 1.22 93 1008.1
20260506223341 12 323 0.0 0.0 0.08 1.22 1.22 93 1007.9
20260506222337 12 323 0.0 0.0 0.08 1.22 1.22 92 1007.8
20260506221346 13 323 0.0 0.0 0.08 1.22 1.22 92 1007.7
20260506220324 13 322 3.2 16.1 0.08 1.22 1.22 91 1007.1
20260506215321 15 345 11.3 27.4 0.08 1.22 1.22 88 1006.6
20260506214344 17 271 8.0 17.7 0.00 1.14 1.14 91 1005.9
20260506213323 17 266 8.0 12.9 0.00 1.14 1.14 91 1005.8
20260506212322 17 283 0.0 11.3 0.00 1.14 1.14 93 1005.8
20260506211320 17 257 3.2 14.5 0.00 1.14 1.14 93 1005.6
20260506210324 17 248 4.8 16.1 0.00 1.14 1.14 93 1005.4
20260506205323 17 254 9.7 17.7 0.00 1.14 1.14 91 1001.4
20260506204342 18 210 8.0 16.1 0.00 1.14 1.14 89 1004.8
20260506203324 17 217 9.7 17.7 0.00 1.14 1.14 89 941.9
20260506202401 17 219 9.7 17.7 0.00 1.14 1.14 89 1006.7
20260506201332 17 201 9.7 19.3 0.00 1.14 1.14 92 970.7
20260506200322 17 200 12.9 19.3 0.00 1.14 1.14 90 1005.2
20260506195321 17 242 6.4 17.7 0.00 1.14 1.14 90 1006.6
20260506194343 17 267 6.4 17.7 0.00 1.14 1.14 92 1005.3
20260506193327 17 193 6.4 16.1 0.00 1.14 1.14 92 1005.4
20260506192325 17 251 4.8 19.3 0.00 1.14 1.14 92 1005.5
20260506191324 17 248 11.3 17.7 0.00 1.14 1.14 92 1005.7
20260506190322 17 221 8.0 22.5 0.00 1.14 1.14 92 1005.6
20260506185340 17 217 8.0 22.5 0.00 1.14 1.14 92 1005.4
20260506184337 17 244 8.0 17.7 0.00 1.14 1.14 93 1005.5
20260506183326 17 223 11.3 27.4 0.00 1.14 1.14 93 1005.6
20260506182325 16 234 8.0 16.1 0.00 1.14 1.14 95 1005.7
20260506181323 16 195 8.0 20.9 0.00 1.14 1.14 94 1005.9
20260506180322 16 275 9.7 22.5 0.00 1.14 1.14 96 1005.9
20260506175321 16 242 6.4 17.7 0.00 1.14 1.14 96 1005.9
20260506174339 16 191 8.0 17.7 0.03 1.14 1.14 96 1009.0
20260506173327 16 171 11.3 22.5 0.03 1.14 1.14 96 1005.7
20260506172324 16 202 9.7 19.3 0.03 1.14 1.14 96 1005.8
20260506171342 16 186 11.3 20.9 0.03 1.14 1.14 96 1005.9
20260506170325 16 225 11.3 16.1 0.03 1.14 1.14 96 1005.9
20260506165324 15 208 11.3 19.3 0.05 1.14 1.14 96 1006.1
20260506164323 15 219 11.3 16.1 0.05 1.12 1.12 96 1006.0
20260506163400 15 197 14.5 22.5 0.08 1.12 1.12 95 1006.0
20260506162343 15 184 9.7 17.7 0.10 1.12 1.12 96 1006.1
20260506161323 15 215 8.0 17.7 0.15 1.12 1.12 96 1006.1
20260506160321 15 203 8.0 16.1 0.20 1.12 1.12 95 1006.0
20260506155325 15 196 12.9 20.9 0.25 1.09 1.09 95 1006.0
20260506154323 15 198 11.3 20.9 0.33 1.07 1.07 95 1006.0
20260506153323 15 239 9.7 17.7 0.38 1.04 1.04 96 1005.9
20260506152341 15 213 6.4 9.7 0.46 1.02 1.02 96 1006.1
20260506151338 15 215 8.0 12.9 0.43 0.97 0.97 95 1006.3
20260506150321 15 215 3.2 14.5 0.43 0.91 0.91 95 1006.4
20260506145321 15 217 6.4 17.7 0.38 0.84 0.84 95 1006.3
20260506144345 15 196 8.0 16.1 0.36 0.74 0.74 95 1006.4
20260506143321 15 220 9.7 17.7 0.30 0.66 0.66 94 1006.3
20260506142324 15 229 9.7 20.9 0.23 0.56 0.56 94 1006.1
20260506141323 15 213 11.3 20.9 0.25 0.51 0.51 93 1006.2
20260506140340 15 203 9.7 20.9 0.28 0.48 0.48 94 1006.2
20260506135321 15 223 8.0 22.5 0.30 0.46 0.46 93 1006.4
20260506134325 15 200 9.7 16.1 0.28 0.38 0.38 93 1020.6
20260506133322 15 234 11.3 20.9 0.28 0.36 0.36 93 1004.7
20260506132345 15 197 6.4 16.1 0.28 0.33 0.33 93 965.7
20260506131343 15 183 3.2 8.0 0.23 0.25 0.25 94 1006.7
20260506130340 15 185 6.4 14.5 0.20 0.20 0.20 93 1006.7
20260506125339 15 195 0.0 4.8 0.15 0.15 0.15 92 1006.9
20260506124321 15 197 0.0 11.3 0.10 0.10 0.10 91 1007.0
20260506123325 16 304 0.0 14.5 0.08 0.08 0.08 89 1007.0
20260506122324 16 185 12.9 19.3 0.05 0.05 0.05 87 944.9
20260506121323 15 190 8.0 16.1 0.03 0.03 0.03 89 1008.4
20260506120322 15 231 0.0 0.0 0.00 0.00 0.00 91 1006.8
20260506115323 15 242 0.0 0.0 0.00 0.00 0.00 90 1006.4
20260506114340 15 242 0.0 0.0 0.00 0.00 0.00 90 1006.5
20260506113323 15 243 0.0 0.0 0.00 0.00 0.00 87 1006.6
20260506112321 16 242 0.0 0.0 0.00 0.00 0.00 81 1006.6
20260506111339 16 243 0.0 0.0 0.00 0.00 0.00 76 1006.3
20260506110333 17 242 0.0 0.0 0.00 0.00 0.00 73 1006.2
20260506105351 17 243 0.0 0.0 0.00 0.00 0.00 70 1007.7
20260506104349 18 243 0.0 0.0 0.00 0.00 0.00 68 1006.0
20260506103327 18 243 3.2 11.3 0.00 0.00 0.00 66 1005.9
20260506102347 19 226 4.8 19.3 0.00 0.00 0.00 65 1007.6
20260506101323 19 225 11.3 22.5 0.00 0.00 0.00 64 1006.4
20260506100347 19 203 14.5 24.1 0.00 0.00 0.00 64 1005.3
20260506095343 19 201 14.5 24.1 0.00 0.00 0.00 63 1008.5
20260506094322 20 231 12.9 25.7 0.00 0.00 0.00 62 1005.7
20260506093325 19 196 11.3 24.1 0.00 0.00 0.00 62 1005.6
20260506092326 18 180 4.8 17.7 0.00 0.00 0.00 64 1005.6
20260506091344 17 222 0.0 11.3 0.00 0.00 0.00 68 1006.6
20260506090322 17 236 0.0 11.3 0.00 0.00 0.00 68 1006.1
20260506085320 17 246 0.0 16.1 0.00 0.00 0.00 67 1005.7
20260506084323 18 241 3.2 12.9 0.00 0.00 0.00 65 1005.8
20260506083326 17 234 1.6 9.7 0.00 0.00 0.00 66 1005.8
20260506082324 18 230 6.4 11.3 0.00 0.00 0.00 63 1005.7
20260506081321 20 254 4.8 14.5 0.00 0.00 0.00 57 1005.9
20260506080322 20 217 4.8 12.9 0.00 0.00 0.00 56 1005.8
20260506073323 20 185 16.1 25.7 0.00 0.00 0.00 53 1005.7
20260506072326 20 204 9.7 22.5 0.00 0.00 0.00 53 1005.6
20260506071324 20 201 12.9 25.7 0.00 0.00 0.00 53 1005.7